Weather Roundup
Issued by NWS

Home | Current Version | Previous Version | Text Only | Print | Product List | Glossary On
Versions: 1 2 3 4 5 6 7 8 9 10 11 12 13 14 15 16 17 18 19 20 21 22 23 24 25 26 27 28 29 30 31 32 33 34 35 36 37 38 39 40 41 42 43 44 45 46 47 48 49 50
000
NZUS93 KARX 241659
HRRWXR

CURRENT HOURLY OBSERVATIONS ACROSS
MUCH OF THE UPPER MISSISSIPPI VALLEY
NATIONAL WEATHER SERVICE LA CROSSE WI
1200 PM CDT TUE APR 24 2018


...SOUTHEAST MINNESOTA...


CITY           SKY/WX    TMP DP  RH WIND       PRES   REMARKS
ROCHESTER      FAIR      67  39  35 NW7       30.12F
ROCHESTER/MAYO FAIR      67  34  29 NW3       30.12F
WINONA         FAIR      70  34  26 CALM      30.08S
AUSTIN         FAIR      64  43  45 N7        30.12F
ALBERT LEA     FAIR      64  39  39 W3        30.14S
DODGE CENTER   FAIR      64  39  39 N6        30.13S
PRESTON        FAIR      66  35  31 NW6       30.12S
OWATONNA       FAIR      66  45  45 NW8       30.13S
FARIBAULT      NOT AVBL
$$

...ELSEWHERE IN MINNESOTA...


CITY           SKY/WX    TMP DP  RH WIND       PRES   REMARKS
MINNEAPOLIS    PTSUNNY   64  33  31 N18G28    30.16R
INTNL FALLS    PTSUNNY   46  27  47 NW12G20   30.27S
DULUTH         CLOUDY    49  30  48 SE3       30.21S
RED WING       FAIR      70  32  24 W7        30.09F
REDWOOD FALLS  CLOUDY    55  37  50 N16G25    30.22R
MANKATO        FAIR      58  44  60 NW17      30.17R
WORTHINGTON    CLOUDY    49  41  74 N21       30.21S
FAIRMONT       MOSUNNY   56  49  77 NW18      30.18R
$$

...SOUTHWEST WISCONSIN...


CITY           SKY/WX    TMP DP  RH WIND       PRES   REMARKS
LA CROSSE      FAIR      67  35  30 NW8       30.09F
PRAIRIE DU CHI FAIR      67  27  22 NW10      30.08F
BOSCOBEL       FAIR      71  31  22 VRB5      30.07F
LONE ROCK      NOT AVBL
PLATTEVILLE    FAIR      67  31  26 N13       30.08S
FORT MC COY    FAIR      67  32  26 NW5       30.09F
CAMP DOUGLAS   MOSUNNY   68  34  28 CALM      30.07F
MAUSTON-NEW LI FAIR      65  35  32 NW3       30.07F
VIROQUA        FAIR      65  35  32 NW7       30.09S
WIS DELLS      FAIR      65  29  26 CALM      30.07F
$$

...ELSEWHERE IN WISCONSIN...


CITY           SKY/WX    TMP DP  RH WIND       PRES   REMARKS
MILWAUKEE      FAIR      55  36  48 NE8       30.07F
MADISON        FAIR      65  31  28 N9        30.06F
GREEN BAY      FAIR      60  32  34 NE8       30.08S
EAU CLAIRE     NOT AVBL
BLACK RVR FLS  FAIR      69  30  23 NE6       30.08F
MEDFORD        FAIR      62  37  38 CALM      30.09S
WAUSAU         FAIR      66  31  27 NW7       30.05F
WIS RAPIDS     FAIR      68  30  24 N6        30.08F
MARSHFIELD     FAIR      66  33  29 NW5       30.07F
RICE LAKE      FAIR      58  33  38 N16       30.17R
$$

...NORTHEAST IOWA...


CITY           SKY/WX    TMP DP  RH WIND       PRES   REMARKS
WATERLOO       FAIR      70  32  24 NW7       30.09F
DUBUQUE        FAIR      66  33  29 N15       30.07F
DECORAH        FAIR      68  34  28 NW10      30.08F
MASON CITY     SUNNY     66  44  45 NW14      30.15S
CHARLES CITY   FAIR      68  39  34 VRB6G13   30.12S
OELWEIN        FAIR      68  32  26 N9        30.10S
$$

...ELSEWHERE IN IOWA...


CITY           SKY/WX    TMP DP  RH WIND       PRES   REMARKS
DES MOINES     PTSUNNY   70  32  24 VRB3      30.12F
IOWA CITY      FAIR      70  29  21 N8        30.09S
FORT DODGE     SUNNY     66  43  43 NE9       30.15F
MARSHALLTOWN   SUNNY     70  34  26 NW12      30.10F
CEDAR RAPIDS   FAIR      71  29  21 N9        30.08S
$$

...NORTHERN ILLINOIS...


CITY           SKY/WX    TMP DP  RH WIND       PRES   REMARKS
CHICAGO-OHARE  PTSUNNY   61  47  59 NE9       30.03F
CHICAGO-MIDWAY PTSUNNY   60  48  64 N16       30.03F
MOLINE         FAIR      69  28  21 N9G17     30.04F
ROCKFORD       FAIR      67  29  24 N12G17    30.05F
PEORIA         PTSUNNY   66  49  54 VRB6G16   30.03F
$$

NOTE: "FAIR" INDICATES FEW OR NO CLOUDS BELOW 12,000 FEET WITH NO
SIGNIFICANT WEATHER AND/OR OBSTRUCTIONS TO VISIBILITY. WIND
SPEEDS ARE IN MILES-PER-HOUR.




USA.gov is the U.S. government's official web portal to all federal, state and local government web resources and services.